Wind_Speed
23 22 21 19 18 17 17 16 15 13 12 11 9 8 6 5 5 4 4 4 4 4 3 3 2 2 3 5 8 8 8 8 8 8 9 10 10 10 10 10 9 8 8 8 9 9 9 10 11 12 14 15 16 18 19 20 20 20 20 20 21 22 24 25 26 29 30 28 26 25 24 22 21 20 17 16 16 16 16 15 14 13 11 11 10
21 21 20 19 17 17 17 16 15 13 12 11 10 9 8 7 6 5 5 5 5 4 4 3 3 2 3 6 8 9 9 10 9 9 10 11 11 11 11 10 10 9 8 8 8 8 9 9 10 11 13 15 16 17 18 19 20 20 20 20 21 22 23 25 27 30 33 32 29 28 27 25 23 21 19 16 16 16 14 14 14 12 11 11 11
18 19 20 19 16 17 17 16 15 14 13 12 10 9 9 8 7 6 6 5 5 4 4 4 4 3 4 6 8 10 10 11 11 11 12 12 12 12 12 11 10 9 8 8 8 8 8 8 9 10 12 14 15 16 17 18 19 19 19 20 21 22 23 25 27 30 33 34 32 31 30 27 24 22 20 17 17 15 13 14 14 13 12 12 12
19 19 20 18 17 17 17 16 15 14 13 12 11 10 10 9 8 7 6 6 5 5 4 4 4 4 4 6 8 10 11 12 12 12 13 13 13 13 12 12 11 9 8 8 8 8 8 8 8 10 11 13 14 15 15 17 18 19 19 19 20 21 22 24 27 29 32 34 34 34 32 29 27 24 21 19 17 15 14 14 15 14 13 12 12
18 18 17 17 17 17 17 17 15 15 14 13 12 11 10 9 8 7 6 6 5 5 5 4 4 4 4 6 8 10 12 13 14 13 14 14 14 14 13 12 11 10 9 8 8 7 7 8 8 9 10 12 14 13 13 15 17 18 18 19 19 20 21 23 26 29 31 32 33 33 33 31 30 28 25 22 19 18 16 15 16 15 14 13 13
15 14 14 16 16 17 17 16 16 15 14 13 13 12 10 9 8 7 6 6 5 5 5 5 4 4 5 6 8 10 12 14 15 14 14 14 15 15 14 13 12 11 10 9 9 8 7 8 8 8 10 12 13 13 13 14 15 16 17 18 18 19 20 22 24 27 30 31 32 32 32 31 31 30 28 26 23 21 20 18 18 17 16 16 15
15 13 14 15 15 16 17 16 16 16 15 14 13 11 10 9 8 7 6 6 6 5 5 4 4 5 5 6 7 9 11 14 15 15 15 15 16 16 15 14 13 12 11 10 9 8 8 8 8 8 9 11 12 12 12 12 13 14 15 16 17 18 19 20 22 25 28 29 30 30 31 31 30 31 30 29 28 25 24 22 21 20 19 18 18
16 15 15 15 15 16 17 17 17 16 15 14 12 10 9 8 7 7 6 6 5 4 4 4 4 5 6 6 7 9 11 14 16 16 16 16 17 17 16 15 15 14 12 11 10 9 9 8 8 8 8 10 11 11 11 10 11 13 14 15 16 17 18 19 21 23 25 26 27 28 30 30 30 29 30 30 29 29 27 26 24 23 21 20 20
18 17 16 16 16 17 17 17 17 16 15 13 11 9 8 8 7 6 5 4 3 3 3 3 4 5 6 6 7 9 11 13 15 16 16 17 18 18 17 16 16 14 13 12 12 11 10 9 8 8 8 8 10 10 9 9 9 11 12 13 15 16 17 18 19 21 23 24 25 26 28 29 29 29 29 29 29 29 29 28 27 26 25 24 22
19 18 18 18 18 18 17 17 17 16 14 12 10 8 8 7 5 4 4 3 2 2 3 4 5 5 6 7 9 10 11 13 15 16 17 17 18 18 17 17 16 15 13 13 12 11 10 9 8 8 7 8 9 9 8 8 8 9 11 12 13 15 16 17 18 20 21 22 23 24 26 27 27 28 28 28 28 28 28 28 28 28 27 27 26
19 19 20 20 19 18 17 17 16 15 13 11 9 8 7 6 4 3 3 2 2 3 4 5 6 7 8 9 10 11 12 14 17 18 19 18 18 18 18 17 16 15 14 13 13 12 11 10 9 8 8 8 8 8 7 7 7 8 8 9 12 14 14 15 16 17 18 20 21 22 23 25 25 26 27 27 27 27 28 28 28 27 27 27 27
21 21 21 21 20 19 17 16 15 13 11 10 8 7 6 4 3 2 2 2 3 4 5 6 7 8 9 11 12 13 14 15 18 20 20 20 19 19 18 17 16 16 15 14 13 13 12 11 10 9 9 8 8 8 7 6 6 6 7 8 10 11 12 13 14 14 16 17 19 20 21 22 23 24 25 25 25 25 26 26 26 27 27 27 26
21 22 22 21 20 18 17 15 14 12 10 9 7 6 4 3 2 1 1 2 3 4 5 7 8 9 10 11 13 14 15 16 18 20 21 21 21 20 19 18 17 16 16 15 14 13 13 12 11 10 9 9 8 8 8 6 5 5 5 6 7 8 9 10 11 12 13 14 16 17 19 20 21 23 23 23 23 24 24 24 24 25 26 26 26
20 20 20 20 19 17 16 15 13 11 9 8 6 5 3 2 1 1 1 2 3 4 6 8 8 9 11 12 13 15 15 16 18 20 22 22 22 22 21 19 18 17 17 16 15 14 14 13 12 11 10 10 9 9 8 7 6 5 5 4 5 5 5 6 7 8 9 11 12 13 16 17 19 20 21 21 21 22 22 22 22 23 24 24 25
16 17 18 18 17 17 16 14 12 10 9 7 5 4 3 2 1 1 1 2 4 5 7 8 9 10 12 13 13 14 14 15 17 20 22 23 23 23 22 21 20 18 18 17 16 15 15 14 13 13 11 10 10 10 9 8 7 6 6 4 3 3 3 3 3 4 6 8 8 9 12 14 16 18 19 19 19 20 20 20 21 21 22 22 22
15 15 17 17 17 16 14 13 11 10 9 7 5 4 3 2 1 1 2 4 5 6 7 8 9 11 12 12 12 12 13 14 17 20 22 24 25 24 23 22 21 19 19 18 17 16 16 15 15 14 13 12 11 10 10 9 8 8 7 6 5 4 3 3 2 2 3 4 5 5 7 9 11 14 16 16 16 17 18 18 19 19 19 20 20
17 16 16 16 16 14 12 12 11 10 9 7 5 4 2 1 1 3 4 5 5 6 7 9 10 11 11 10 10 10 12 14 17 19 22 24 25 25 24 23 21 20 19 19 18 17 17 17 16 15 14 13 12 12 11 10 9 8 8 7 6 5 4 4 4 2 2 2 1 2 4 5 7 10 12 12 13 14 14 16 16 17 17 18 18
17 16 16 16 15 14 12 11 11 9 8 6 5 2 1 1 3 4 4 4 5 7 8 10 10 10 9 8 9 10 12 14 17 19 21 23 25 25 24 23 22 21 20 20 18 18 18 18 17 16 15 14 14 13 13 12 11 10 9 8 8 7 6 6 5 4 3 2 2 1 2 3 4 6 7 8 9 10 11 12 13 14 15 15 16
19 18 16 16 15 14 12 11 9 8 7 5 3 1 1 2 3 3 4 5 6 7 8 10 10 9 8 8 9 11 12 13 16 19 20 22 24 25 25 24 24 23 21 20 20 19 19 19 18 17 16 16 15 15 15 14 12 12 11 11 10 9 8 8 7 6 5 5 4 4 3 3 3 3 4 5 6 7 8 9 10 11 12 12 13
20 19 18 16 15 13 12 10 8 6 5 4 2 1 1 2 3 3 4 5 6 7 8 9 9 9 9 9 10 11 11 12 15 18 18 20 22 24 25 25 25 24 22 22 21 21 20 20 19 19 18 17 17 16 16 16 14 13 13 13 12 12 11 11 10 9 8 7 7 6 6 5 4 3 3 3 4 5 6 6 7 8 8 9 10
20 19 18 16 14 13 11 9 7 5 3 3 2 2 2 2 2 3 3 5 6 7 8 9 9 9 9 9 10 10 11 12 14 16 17 19 20 22 23 25 25 24 23 22 22 21 21 20 20 20 19 18 18 17 18 17 16 15 14 15 14 14 14 13 13 12 11 10 10 9 8 7 7 5 4 4 4 4 4 5 5 6 6 7 7
20 19 17 14 12 11 9 7 5 4 3 3 3 3 2 2 2 2 4 5 6 8 8 9 9 9 9 9 10 10 11 12 14 15 17 18 19 20 21 23 24 24 23 22 21 21 21 21 21 21 20 19 18 18 19 19 18 16 16 16 16 16 16 15 15 15 14 13 13 12 11 10 10 9 7 7 6 6 6 5 4 5 5 5 6
19 18 15 13 11 10 8 6 5 5 4 3 3 3 2 2 3 3 4 6 7 9 9 10 10 10 10 10 11 11 11 12 13 14 15 16 17 18 19 21 22 22 22 21 21 22 22 21 21 20 20 20 19 19 20 20 19 18 17 17 18 18 17 17 17 16 16 15 15 15 14 13 13 12 11 10 9 9 8 7 6 5 5 4 5
17 15 12 11 10 10 8 7 6 4 3 2 3 3 4 4 3 3 4 6 8 9 10 11 11 11 11 11 12 12 12 12 13 13 14 15 15 16 18 19 20 21 20 20 20 22 22 21 20 20 20 20 19 20 20 20 20 19 19 19 19 19 19 19 18 18 17 17 16 16 16 15 15 15 14 13 12 12 11 10 9 8 7 6 6
16 13 11 10 9 8 7 5 4 2 1 2 3 4 5 5 4 4 5 7 9 10 11 11 11 12 11 12 13 13 14 14 14 14 14 15 14 15 16 17 18 18 17 17 19 21 21 19 19 20 20 20 19 19 20 19 19 18 18 18 19 19 19 19 18 18 17 17 17 17 17 16 16 16 15 15 15 14 13 13 12 11 9 8 8
15 13 10 9 8 7 6 3 1 1 2 2 3 4 5 5 4 5 6 7 9 10 11 11 11 11 12 13 14 15 15 15 15 14 14 15 15 16 16 16 15 13 13 15 18 19 16 15 17 18 18 18 17 16 16 15 15 15 15 15 16 16 17 17 17 17 16 16 16 16 16 16 16 16 16 15 15 14 14 14 13 13 12 10 9
13 12 9 7 6 5 4 3 2 2 3 4 4 5 5 5 5 6 6 7 9 9 10 10 10 11 13 15 15 16 16 15 14 12 12 14 15 15 15 16 15 13 12 15 16 12 9 10 13 14 14 14 13 11 11 11 11 12 12 13 13 13 13 14 14 14 14 15 15 15 14 14 15 16 16 15 15 14 14 14 14 13 13 12 12
11 10 8 6 4 4 4 3 1 3 5 6 5 5 5 5 6 6 6 7 7 8 10 11 11 12 14 16 16 16 15 14 12 11 11 12 12 12 12 14 15 14 13 13 12 10 7 9 11 11 11 10 9 8 8 9 10 11 11 12 11 11 10 11 12 12 12 13 13 13 13 13 14 15 16 15 15 15 15 14 14 14 14 14 14
12 11 8 5 1 1 3 5 7 10 9 7 6 4 5 6 6 6 6 6 7 9 10 11 12 13 14 16 16 15 15 13 12 11 11 11 11 12 12 12 13 13 13 13 12 13 13 12 11 10 9 8 8 8 8 9 10 11 11 11 11 10 9 10 11 11 11 11 12 12 11 11 12 14 14 14 14 15 15 15 15 14 14 14 14
12 9 7 5 4 4 6 8 11 12 10 8 7 6 6 6 7 6 5 5 7 9 10 11 12 12 14 15 15 14 14 14 13 12 12 11 12 11 10 10 11 11 12 13 12 14 15 14 12 10 8 8 8 8 9 10 11 11 11 11 11 10 10 10 11 11 11 11 10 10 9 9 10 11 12 12 12 13 14 13 14 14 14 14 14
14 11 9 5 3 4 5 6 9 10 10 10 10 9 7 7 7 6 5 6 7 9 10 10 10 11 13 14 13 13 14 14 13 13 13 13 11 10 8 8 9 9 9 10 10 12 15 14 12 10 9 9 8 8 9 10 11 11 11 11 11 11 11 11 11 11 11 10 9 9 8 7 8 9 9 9 9 10 11 11 12 12 13 13 13
12 14 10 5 1 4 5 6 8 10 11 12 12 10 8 8 7 6 5 5 7 8 9 9 9 11 13 13 13 13 13 14 14 14 14 13 11 9 8 8 8 8 7 9 10 12 14 14 12 11 10 8 8 8 9 10 11 10 10 10 11 11 11 11 11 11 10 9 9 9 8 7 7 8 7 7 7 8 9 10 10 10 11 12 12
6 8 6 3 5 9 8 9 11 12 13 13 12 10 9 8 7 6 6 5 7 8 9 10 10 11 12 12 12 12 13 14 15 15 14 13 12 11 10 9 9 8 7 8 10 12 13 14 13 12 10 9 8 8 10 10 10 9 10 10 11 11 11 11 11 10 9 9 10 10 9 8 7 7 7 7 7 8 8 8 9 10 10 9 10
7 7 7 7 10 11 11 11 13 13 13 13 12 10 9 9 8 7 6 6 8 9 9 10 10 12 13 12 12 12 13 14 15 15 14 13 13 13 12 12 10 10 9 9 11 12 13 14 13 12 11 9 9 9 10 10 10 9 10 10 11 10 11 11 10 10 9 10 11 10 9 8 8 8 8 9 8 8 8 8 8 9 9 8 9
7 7 8 8 8 9 11 12 13 14 14 12 11 10 9 9 8 7 7 8 9 10 10 10 11 13 14 13 12 12 12 13 14 15 15 14 14 14 14 13 12 12 12 11 12 13 13 13 13 11 10 9 9 10 10 10 9 9 9 10 10 10 10 11 10 10 10 11 11 7 6 8 8 9 9 9 8 8 9 8 8 7 7 7 8
7 8 7 6 7 10 12 13 13 14 13 12 11 10 10 9 9 8 8 9 9 10 11 11 13 14 14 13 13 12 12 13 14 15 15 15 15 14 14 14 13 14 14 13 13 13 13 12 11 11 10 9 9 10 9 9 8 8 8 9 10 9 10 10 10 10 10 11 9 6 7 8 7 9 10 9 8 8 8 7 7 6 6 6 6
6 7 7 7 9 12 13 14 13 13 13 12 12 11 10 10 9 9 10 10 10 11 12 13 14 14 14 13 13 13 13 13 13 13 14 14 14 14 14 14 14 15 15 14 14 14 12 11 11 10 9 9 9 9 9 8 8 8 8 9 9 9 9 9 10 10 10 9 9 8 9 7 4 6 7 7 7 7 6 5 5 5 5 5 5
3 6 7 8 11 14 15 14 13 13 14 13 13 12 10 10 10 11 11 11 12 13 13 13 13 14 14 13 13 13 12 12 12 13 13 13 12 13 14 14 14 15 14 14 14 13 12 11 11 10 9 9 9 9 9 8 8 8 8 8 8 8 8 8 9 9 9 8 8 9 7 4 4 4 4 5 6 6 5 4 3 4 4 4 4
2 5 7 9 13 15 15 14 13 14 14 14 13 12 10 10 10 12 12 11 13 14 14 14 14 13 13 13 13 13 12 12 13 13 13 12 12 13 13 13 13 13 13 13 13 12 11 11 10 9 9 9 9 9 9 8 8 8 8 7 7 8 8 8 8 8 9 8 9 9 7 6 6 4 4 5 5 6 5 3 3 3 4 4 4
2 5 7 9 13 15 15 14 14 15 15 15 13 11 11 10 10 12 11 12 13 13 13 14 14 13 12 12 12 12 12 13 13 13 13 12 12 12 12 12 12 12 12 12 11 10 9 9 9 9 9 9 9 8 8 8 8 7 7 7 7 7 8 8 8 8 9 9 10 9 9 9 8 5 4 4 5 6 4 3 2 3 4 4 4
2 3 6 10 13 14 14 14 14 15 15 14 13 11 10 10 11 12 12 12 13 12 12 12 12 11 11 11 11 11 11 12 12 12 11 11 11 11 11 10 11 11 11 10 9 9 8 9 9 8 8 8 8 8 7 6 6 6 6 6 6 6 6 7 7 8 8 9 10 9 10 10 8 5 4 3 4 5 3 2 2 3 5 4 4
3 4 7 11 13 14 14 13 14 15 14 14 13 11 11 11 13 13 13 14 13 12 12 12 11 11 10 9 9 9 10 10 11 10 10 10 10 10 10 10 10 9 9 9 9 9 9 9 9 9 8 8 8 7 6 6 5 5 5 5 5 4 4 5 5 6 7 8 9 9 9 9 8 5 4 2 3 4 2 2 2 4 4 3 4
4 6 10 13 14 14 14 14 15 15 14 14 13 13 13 14 15 15 15 15 14 13 12 11 10 9 8 8 8 8 8 9 9 10 10 11 10 10 10 9 9 9 9 9 10 9 9 9 9 9 9 8 7 6 5 5 5 5 4 4 4 4 4 4 4 4 5 6 7 8 8 8 7 5 4 4 3 3 3 3 3 2 2 1 2
6 8 11 14 15 15 15 15 15 15 14 14 14 15 15 16 17 17 16 16 14 13 12 10 8 7 7 6 6 6 6 6 6 7 8 9 9 10 10 10 9 9 10 11 11 11 11 10 10 9 9 9 8 7 6 6 5 4 4 4 5 5 5 5 5 5 5 6 7 8 8 8 7 6 6 6 5 4 4 4 3 1 2 2 2
7 9 11 14 15 15 16 16 16 15 14 15 16 16 16 17 17 17 16 15 13 12 11 8 6 6 5 5 5 5 4 3 3 3 4 5 6 8 9 9 10 11 11 12 12 12 12 12 12 11 10 9 8 7 7 6 5 4 4 5 5 6 6 6 6 6 6 6 7 7 7 7 7 7 7 7 7 6 4 5 4 3 2 2 1
9 11 13 14 16 16 15 15 15 15 15 15 17 17 18 18 18 17 16 12 11 11 9 7 6 5 5 5 5 4 3 3 2 2 2 2 3 4 5 7 8 9 10 11 12 12 12 13 13 12 11 10 8 7 7 7 6 5 5 5 5 6 6 7 7 7 7 6 6 6 6 6 7 7 6 6 7 6 5 5 5 3 3 3 2
10 13 14 15 16 16 15 14 14 15 16 17 18 19 20 20 19 18 16 12 11 11 9 7 6 6 6 6 5 4 4 4 3 3 2 2 2 2 3 4 5 6 7 8 9 10 11 13 13 13 11 10 9 8 8 7 7 7 7 6 6 6 7 8 8 8 8 7 7 6 5 6 7 7 7 6 6 6 5 5 5 4 4 3 3
13 14 14 14 15 15 13 13 14 16 18 18 18 19 21 21 19 18 16 14 13 11 9 7 6 6 7 6 5 5 5 5 4 3 3 2 1 1 1 2 3 4 4 5 5 6 7 9 11 12 11 10 9 8 8 7 7 8 8 7 7 7 8 9 9 9 8 8 7 7 6 6 6 7 8 8 7 6 5 5 5 4 4 3 2
15 16 14 12 13 14 13 13 15 16 18 19 18 19 22 21 19 19 18 15 13 11 9 8 8 8 7 7 6 6 5 5 4 3 2 2 1 1 1 1 2 3 3 3 3 3 4 5 7 9 10 11 10 10 9 8 7 8 8 8 8 8 8 8 8 9 9 9 8 7 6 4 5 6 7 7 7 5 4 4 4 4 4 3 2
16 15 12 10 12 13 12 13 14 16 18 18 18 18 19 20 20 20 18 15 12 9 9 9 9 9 8 8 7 6 6 5 3 2 1 0 1 1 1 1 1 2 3 3 2 2 2 3 4 6 7 9 10 10 10 9 8 8 9 9 9 9 9 8 9 9 8 8 7 7 5 4 5 5 6 5 5 5 5 4 4 4 4 3 3
16 14 11 9 11 11 11 13 15 17 18 18 19 19 19 20 22 20 17 15 11 8 9 9 10 10 9 8 8 6 5 3 2 1 0 1 1 2 2 2 2 2 2 3 2 2 2 2 2 3 5 6 7 7 7 7 7 8 10 10 9 8 9 9 9 9 8 7 7 6 5 4 4 4 5 5 4 5 5 5 5 5 4 3 3
Wind_Direction
222 223 220 213 204 201 199 194 190 181 178 179 182 185 185 185 186 192 203 221 231 245 253 255 257 258 253 223 212 205 193 190 187 180 176 172 169 163 156 146 141 141 136 124 117 110 100 96 92 89 86 82 79 79 79 77 76 73 70 69 68 67 66 65 68 70 67 65 66 69 74 83 91 93 94 100 107 107 104 104 101 97 94 92 93
228 227 219 212 202 198 197 194 189 180 179 180 182 186 188 191 192 197 204 216 224 234 246 249 248 245 247 230 216 210 202 195 191 183 178 175 170 165 158 150 146 148 144 133 125 116 105 100 96 91 87 84 80 79 78 78 76 74 72 70 70 69 69 68 68 71 70 66 65 67 69 76 85 93 95 98 102 102 101 100 96 91 88 89 91
219 222 217 211 201 195 195 194 188 181 182 181 184 189 191 194 195 200 207 215 223 229 238 243 240 235 237 233 222 215 207 199 195 187 181 178 171 166 161 154 151 155 153 140 131 122 112 105 100 95 91 88 83 79 79 78 77 76 73 71 71 71 71 71 70 71 72 69 66 65 66 70 76 85 92 95 97 98 97 93 93 93 92 94 94
204 210 216 214 202 194 194 193 188 184 184 182 186 192 195 195 196 200 206 214 222 227 232 235 235 233 235 234 228 220 210 203 199 191 185 180 171 167 164 158 156 162 162 148 137 130 119 112 107 100 95 90 86 82 81 81 80 77 75 73 71 72 72 73 73 72 72 71 68 65 65 66 71 76 83 88 91 92 93 91 94 97 98 98 96
202 205 214 214 201 193 194 191 187 185 184 185 190 195 197 195 196 199 204 210 216 223 226 228 231 234 237 236 233 226 214 205 203 197 189 180 171 170 167 161 163 168 169 157 145 139 129 121 114 106 100 94 90 86 84 83 82 80 78 76 73 73 74 74 75 75 73 72 72 68 65 65 67 69 73 77 80 83 86 89 92 95 97 95 93
210 211 211 210 201 194 193 191 188 186 186 188 193 195 197 195 195 197 201 207 212 216 216 217 223 231 238 240 237 232 221 209 208 203 191 181 172 173 171 165 169 173 173 163 153 150 140 130 121 115 107 99 94 89 85 82 82 83 82 80 76 74 74 75 76 77 76 74 73 72 68 65 65 67 68 70 72 74 78 81 84 86 87 87 88
215 216 208 205 199 195 195 192 189 187 189 192 194 195 195 195 193 194 200 204 208 210 209 210 215 226 236 241 241 238 227 213 211 208 194 183 176 175 175 170 174 179 176 168 161 160 152 139 131 124 114 104 99 93 88 86 86 85 84 83 79 76 74 74 75 77 78 76 75 74 72 68 65 65 66 67 68 69 71 72 74 77 79 80 82
211 211 206 201 197 197 197 194 189 188 191 194 194 193 193 192 190 191 197 201 204 205 209 213 218 226 233 241 242 240 232 218 216 212 197 187 181 178 178 176 179 183 179 173 169 168 162 150 142 133 121 112 106 100 94 93 93 91 88 85 82 79 76 74 75 77 78 78 77 76 74 71 67 66 66 66 67 68 69 70 71 73 75 76 77
210 208 204 200 197 197 197 194 188 188 193 194 193 190 189 188 187 187 191 194 198 205 217 225 227 232 235 239 241 240 235 224 219 213 201 192 187 182 181 182 184 187 184 177 175 174 171 163 153 143 131 121 115 107 101 99 100 98 93 89 86 82 79 77 76 77 78 79 79 78 77 74 72 69 67 66 66 67 68 69 71 71 73 74 75
212 210 205 201 198 195 194 191 187 189 191 191 188 184 183 182 179 179 182 189 203 219 233 240 238 239 238 237 238 238 234 225 214 207 202 196 192 189 187 188 188 189 189 184 182 180 178 174 164 155 145 134 125 116 110 105 107 106 99 94 90 85 81 79 78 79 80 79 79 79 79 77 75 73 70 67 66 67 67 68 69 70 71 72 73
218 214 206 201 196 192 189 187 186 186 186 184 180 175 175 175 173 176 186 207 236 254 253 248 243 239 236 234 234 234 232 222 210 204 200 197 196 195 193 194 192 191 196 192 188 188 185 183 176 168 161 150 138 128 122 114 114 114 106 100 95 90 85 81 79 80 81 81 80 79 79 79 78 76 74 71 69 68 67 67 67 68 69 71 72
220 213 206 199 192 188 185 185 184 180 177 174 170 169 173 176 182 191 216 258 266 266 257 246 237 232 230 230 232 232 231 223 212 206 200 198 199 198 198 201 198 195 200 198 195 196 193 191 187 180 174 164 153 142 135 129 126 122 114 108 101 95 90 84 81 81 81 82 82 80 79 79 79 79 77 75 72 71 69 67 66 67 67 68 69
218 210 203 196 188 184 181 182 179 172 168 167 166 169 178 186 197 224 252 269 259 251 243 237 230 226 227 228 230 230 229 223 214 208 203 200 200 201 201 204 205 201 203 204 200 202 201 199 196 192 187 177 168 159 151 146 143 136 125 118 111 102 96 90 84 82 81 81 82 81 80 78 78 78 78 77 75 73 72 70 68 66 66 66 66
213 206 198 192 185 181 178 179 175 167 164 166 167 170 177 181 190 208 232 236 233 232 229 229 228 227 229 230 231 230 228 224 217 212 208 204 203 203 202 204 208 207 207 209 205 207 208 206 205 203 199 191 183 176 168 164 164 162 152 141 128 117 107 99 91 86 82 79 78 80 80 80 78 76 76 76 76 75 74 73 71 68 66 66 66
203 201 194 189 184 180 178 175 168 164 164 164 162 161 160 145 140 150 210 237 236 235 233 233 232 231 232 232 233 231 228 224 221 217 212 208 207 205 203 204 209 210 211 213 211 211 213 213 213 212 209 204 199 192 185 181 182 184 181 179 170 155 142 125 112 99 89 79 74 74 77 79 78 77 75 74 74 74 73 73 73 71 68 66 66
187 193 190 186 182 179 177 169 162 159 158 157 152 144 135 125 127 219 254 249 247 242 239 239 236 233 232 234 234 232 228 224 225 222 216 211 210 208 206 206 208 212 214 216 215 215 217 218 219 219 218 216 214 209 201 196 197 200 201 201 200 198 195 192 192 146 113 91 72 65 68 73 77 79 77 74 72 70 71 71 71 71 70 68 67
177 184 185 181 178 174 170 162 156 154 151 147 139 130 120 132 241 257 257 248 245 241 236 236 233 229 228 232 233 231 228 226 226 224 219 214 213 210 208 208 208 212 216 218 218 220 221 222 222 224 224 224 225 224 219 212 210 214 218 219 219 221 221 222 234 230 179 141 76 44 45 54 65 74 75 73 70 68 68 68 67 67 68 69 68
173 179 180 176 170 165 160 153 149 147 144 137 126 127 158 247 262 258 253 245 238 235 232 229 227 226 226 229 233 233 231 230 229 225 221 216 215 213 210 209 208 211 215 219 220 223 226 226 227 228 229 231 232 233 233 228 223 225 232 235 237 238 240 241 246 252 246 237 252 305 346 15 36 53 65 68 65 63 62 63 63 63 63 64 66
173 175 174 170 164 157 150 145 144 140 132 125 125 132 257 255 256 253 243 238 234 233 230 224 225 228 232 239 240 240 235 232 231 227 223 218 216 215 212 210 209 210 212 218 221 224 228 230 231 232 233 235 238 239 241 239 235 234 239 244 247 250 253 256 257 260 264 264 262 269 289 319 349 11 38 52 52 51 50 52 56 58 59 59 60
173 170 167 164 159 152 145 142 139 136 131 123 124 148 257 247 241 245 241 238 236 236 231 226 232 239 244 247 246 245 238 231 230 227 222 219 217 215 213 211 210 210 210 215 220 223 228 232 235 236 236 238 241 244 246 246 245 244 246 250 253 256 259 263 266 267 270 274 273 271 279 292 301 315 342 6 22 31 34 39 43 46 48 51 55
172 168 166 165 158 149 142 142 142 141 140 134 145 192 217 222 234 250 250 248 242 238 235 235 240 246 249 248 244 242 236 230 230 226 221 221 220 215 214 213 212 212 211 213 219 223 228 231 235 238 239 241 244 248 251 252 252 252 253 256 258 261 263 266 270 271 273 276 278 278 279 284 287 287 294 309 324 341 359 13 24 29 30 35 44
172 171 172 166 156 149 146 147 156 165 164 163 174 198 206 205 219 236 247 249 243 236 236 239 241 242 244 242 239 235 230 228 229 226 222 222 222 215 212 213 213 214 213 213 218 223 227 230 233 238 241 244 247 250 254 257 259 259 260 262 264 265 267 268 270 272 274 275 278 280 280 281 283 282 281 286 294 302 312 325 340 356 6 14 21
176 178 174 165 155 151 157 166 179 186 177 175 184 202 218 217 220 229 241 244 239 234 232 236 239 241 241 235 231 228 225 225 225 223 220 220 218 213 210 211 213 214 214 213 216 222 227 230 233 237 241 245 249 252 256 260 262 263 265 267 269 270 271 272 272 273 274 275 277 279 280 279 279 279 278 278 282 286 291 296 301 310 323 332 346
176 176 167 163 160 157 167 183 190 190 176 187 213 225 236 234 238 239 239 239 236 233 232 236 240 242 240 229 223 221 221 223 222 220 217 216 213 211 211 213 214 213 211 211 216 222 226 230 235 238 242 244 248 253 256 260 263 265 267 269 271 273 273 273 273 273 273 274 274 274 276 277 277 278 277 278 279 281 283 286 288 289 293 299 310
169 167 160 158 157 162 175 189 188 190 210 239 241 240 247 245 248 245 238 237 235 235 236 239 241 241 236 223 214 214 218 221 220 216 215 216 214 214 216 217 217 213 210 211 218 223 224 229 236 241 243 245 247 251 256 259 263 265 267 269 270 271 272 272 272 272 272 272 270 270 270 272 274 275 275 275 277 278 279 281 283 283 284 286 289
161 153 148 154 157 168 175 174 126 356 302 270 259 255 259 257 258 252 242 236 235 237 241 244 243 239 228 215 210 212 218 223 224 218 218 222 219 218 219 220 220 216 213 214 218 218 218 227 237 241 244 245 246 247 252 257 262 265 267 267 267 268 269 270 270 271 271 270 269 269 269 269 270 271 271 271 272 274 275 277 278 280 281 280 280
151 149 149 150 155 165 157 118 67 6 314 287 269 264 267 272 276 264 249 239 238 240 243 246 242 232 217 208 208 213 220 230 235 229 226 226 223 222 222 223 224 223 220 216 212 200 198 231 239 240 241 240 240 241 247 253 259 263 267 267 266 266 266 268 268 268 268 268 268 268 268 266 267 267 267 267 267 268 269 270 272 274 275 275 275
147 156 155 140 143 157 164 155 160 286 283 275 265 264 274 285 283 265 248 239 240 242 242 241 233 222 209 205 209 215 222 229 234 233 228 223 219 222 222 220 218 217 217 210 198 176 189 244 246 237 236 235 238 242 246 252 258 263 268 270 270 269 268 269 268 267 266 266 266 266 266 264 264 264 265 265 265 265 264 264 265 267 268 268 269
152 162 150 117 115 224 249 261 271 271 266 260 256 260 273 280 271 255 243 237 239 241 239 235 224 211 202 206 212 216 218 219 223 224 219 212 209 210 205 199 198 203 203 198 189 181 205 248 255 241 242 244 247 249 252 259 264 267 268 269 272 274 273 272 270 270 270 269 267 265 266 265 264 263 263 262 261 262 261 261 261 262 262 261 261
140 141 137 98 31 327 296 280 273 268 262 261 262 264 265 261 254 247 240 234 236 237 233 226 214 201 199 208 213 213 211 211 217 219 212 210 209 206 199 193 194 198 195 194 189 188 212 247 258 252 256 256 257 258 261 266 268 269 269 268 272 275 274 272 273 275 275 273 271 269 268 266 262 261 261 259 258 259 259 258 257 256 256 255 253
161 145 151 141 12 319 284 263 259 254 254 262 267 269 264 252 245 240 233 228 229 229 227 217 203 194 200 206 208 207 205 208 216 214 209 213 214 209 208 207 208 206 197 199 202 203 225 252 259 259 261 258 262 265 267 269 269 270 269 269 272 274 274 273 275 277 276 276 274 271 266 261 257 256 257 258 258 257 257 256 254 253 252 252 250
176 172 171 166 268 258 227 224 232 235 245 256 260 262 257 248 240 231 228 222 222 221 218 212 202 196 198 199 199 202 205 209 212 209 209 214 218 220 222 224 225 221 209 210 218 227 244 260 262 263 263 261 264 265 267 268 267 268 268 268 269 271 273 274 274 275 275 274 271 264 257 251 248 250 255 259 260 258 256 256 254 253 252 252 251
119 148 154 166 211 214 206 211 220 229 239 244 248 250 248 244 236 230 228 217 214 212 207 205 203 196 190 191 194 199 202 203 204 205 210 216 221 230 235 238 237 236 234 231 238 249 258 263 266 268 269 267 265 262 264 263 263 263 262 262 264 267 270 271 271 270 267 263 257 251 246 244 247 254 261 265 264 263 262 260 254 250 251 254 255
130 136 159 195 210 209 207 213 220 229 235 235 240 242 239 237 232 230 225 212 206 203 202 199 194 189 184 186 190 193 194 194 198 205 213 219 225 232 239 244 245 247 253 255 258 263 266 267 269 270 269 267 263 261 259 259 259 257 253 253 256 260 263 265 266 262 257 252 248 243 246 257 266 269 271 268 263 263 264 262 258 253 253 259 262
176 178 186 202 210 209 214 218 221 231 235 233 235 229 228 229 228 226 214 206 201 196 195 190 186 184 183 185 187 191 194 198 204 211 219 226 232 237 242 246 250 255 260 264 268 268 268 267 267 266 265 263 261 259 257 257 257 252 247 248 251 254 257 261 260 258 255 253 251 250 259 266 268 269 270 266 259 258 260 264 266 264 260 260 264
177 182 192 204 214 218 223 224 221 229 233 231 227 219 223 226 225 221 205 200 198 193 189 185 184 185 186 190 194 200 207 213 218 223 229 234 238 239 243 248 252 256 258 261 264 262 262 262 262 261 259 259 258 258 257 258 257 252 250 251 254 254 255 256 257 257 256 259 269 276 261 255 261 269 268 264 259 255 257 265 273 275 271 267 269
180 189 196 204 219 227 228 225 224 227 227 226 221 218 221 222 222 212 198 196 194 189 187 187 187 187 191 197 202 209 216 222 225 228 232 235 237 239 243 247 249 251 252 254 255 254 256 258 258 256 255 255 255 256 255 256 259 257 255 255 255 255 253 252 253 255 257 271 287 273 253 246 254 273 269 257 252 251 253 264 277 286 285 283 284
203 216 214 207 215 227 228 226 227 225 223 220 218 220 219 218 218 203 193 194 191 188 188 188 189 191 197 202 207 212 216 221 224 227 230 233 237 240 242 244 245 248 249 250 250 251 255 254 253 252 252 253 253 256 255 255 257 256 255 255 254 253 252 251 252 252 255 273 282 270 267 266 252 262 260 245 248 251 255 265 282 298 297 292 288
262 253 241 216 212 222 227 226 225 223 222 218 217 221 217 216 215 199 193 195 192 191 190 190 192 196 201 205 208 212 216 223 228 232 236 239 240 241 243 245 247 249 249 248 250 252 252 250 248 248 249 251 253 256 257 256 254 253 254 256 257 259 259 258 255 253 257 268 274 277 283 273 258 257 250 253 267 261 258 279 296 304 294 279 271
288 276 254 222 214 223 228 227 224 222 221 220 223 222 216 218 213 201 198 198 196 193 192 193 196 197 200 205 210 216 222 229 233 236 241 243 243 244 248 250 249 249 249 249 249 249 248 247 247 247 249 250 251 253 254 254 254 253 255 258 265 270 268 264 259 259 264 270 277 283 283 276 272 269 256 260 270 259 253 282 305 300 278 259 249
278 272 245 220 216 225 230 228 225 222 221 223 225 219 215 218 212 204 203 202 199 195 193 196 198 199 203 210 216 221 226 230 234 237 240 240 241 244 246 249 250 251 251 250 249 248 246 246 247 248 249 249 250 250 246 246 251 253 255 264 270 271 268 265 262 261 265 273 280 284 285 287 286 276 267 258 258 259 253 275 320 299 271 249 239
235 223 218 214 213 219 225 225 223 220 220 224 221 213 211 212 206 203 203 203 200 195 196 199 201 203 208 216 222 226 229 233 237 239 237 235 236 238 241 244 247 249 250 248 248 248 246 247 248 248 247 246 246 241 236 237 245 249 254 266 269 268 275 275 269 265 266 274 280 284 285 289 290 283 271 251 252 266 277 314 324 301 281 259 251
226 206 204 208 209 212 218 221 220 216 217 221 215 206 207 208 203 201 203 203 201 199 201 203 206 211 216 223 227 230 233 233 232 233 233 232 231 235 239 241 243 244 247 246 246 245 243 244 246 245 243 240 233 225 228 234 236 243 251 259 261 267 284 292 289 283 276 274 276 283 286 287 290 287 273 267 269 263 285 318 320 305 289 245 246
224 211 205 206 207 211 217 221 220 214 213 216 212 206 206 207 204 202 204 204 203 202 202 205 213 221 223 226 226 225 224 221 218 220 226 227 230 236 240 242 245 245 247 247 243 239 236 236 238 238 235 232 226 221 227 231 231 241 249 255 265 271 275 279 283 284 279 276 274 279 283 281 278 272 267 267 263 253 274 300 292 259 240 214 215
217 212 206 207 211 215 218 221 222 217 210 211 211 207 207 209 207 203 206 207 205 201 198 204 216 221 218 215 213 209 201 195 190 194 205 211 221 231 235 239 242 243 246 246 242 237 233 232 232 231 227 224 224 226 230 230 232 239 243 254 268 273 273 271 275 278 277 276 276 277 277 271 261 256 256 251 245 246 259 274 264 245 239 232 237
211 210 208 211 216 219 221 222 222 220 214 211 211 207 207 211 208 204 205 206 202 199 201 207 208 204 201 197 193 187 171 156 146 149 158 171 192 211 222 230 235 239 243 244 242 237 231 228 228 229 228 225 223 225 229 232 236 241 243 250 256 260 266 270 272 274 273 269 269 276 275 263 248 241 245 246 247 249 246 253 254 248 240 236 261
211 212 213 216 221 223 223 224 223 222 220 215 211 209 209 212 208 202 199 195 194 200 206 208 201 196 190 180 173 159 138 128 120 116 116 125 152 186 213 229 237 243 244 243 240 235 228 224 223 226 230 232 231 227 230 233 237 243 246 247 250 254 257 261 264 266 267 267 266 269 266 258 251 247 250 254 257 256 251 252 250 245 243 245 270
213 217 219 222 229 230 228 228 225 220 220 217 213 211 212 213 207 201 197 191 191 198 205 200 191 188 182 164 150 138 127 117 111 110 114 123 137 167 215 241 249 254 253 248 242 233 226 222 221 223 225 231 234 230 231 232 232 239 243 243 242 245 247 250 254 257 263 268 267 262 257 255 255 255 258 261 263 263 261 253 244 248 260 269 277
217 221 224 228 236 237 234 231 226 220 219 215 211 211 214 212 204 201 200 194 191 194 194 188 181 179 172 155 141 135 128 118 114 116 118 122 127 145 181 222 242 252 254 253 256 247 234 226 224 223 223 227 230 230 230 229 229 233 239 239 233 230 235 242 249 254 260 266 267 264 257 251 248 250 258 265 267 270 269 256 248 254 264 270 272
222 225 227 230 235 237 236 232 227 221 218 213 210 211 212 209 204 201 197 188 187 189 184 180 176 171 165 154 145 139 133 126 124 122 106 68 5 331 318 292 266 258 252 252 259 257 247 232 223 219 217 217 222 227 229 229 228 226 225 227 224 224 227 231 236 243 252 262 271 271 257 239 237 238 246 257 265 270 272 267 262 260 257 256 257
224 227 234 235 229 229 230 228 221 213 212 210 207 206 206 204 201 198 189 178 179 183 177 172 169 165 163 158 151 147 146 143 139 138 276 295 310 314 316 315 302 288 275 273 276 271 263 256 231 213 202 198 208 219 222 219 214 209 211 214 217 224 229 232 233 232 235 242 253 259 248 237 241 244 243 246 253 264 272 278 278 274 270 264 260
Height
3141 3142 3143 3144 3144 3145 3146 3146 3147 3147 3148 3149 3151 3152 3153 3154 3155 3156 3157 3158 3159 3159 3161 3162 3162 3163 3164 3164 3164 3164 3165 3165 3165 3166 3166 3167 3168 3168 3169 3169 3170 3170 3171 3171 3172 3172 3172 3172 3173 3173 3173 3174 3173 3173 3173 3172 3172 3172 3172 3171 3171 3170 3169 3168 3167 3165 3164 3164 3163 3163 3162 3162 3163 3164 3164 3165 3165 3165 3165 3165 3165 3165 3165 3165 3165
3141 3142 3143 3143 3143 3144 3145 3146 3146 3147 3148 3149 3150 3152 3153 3154 3155 3155 3156 3157 3158 3159 3160 3161 3162 3163 3163 3164 3164 3164 3164 3165 3165 3166 3166 3167 3168 3169 3169 3170 3170 3171 3171 3172 3172 3173 3173 3173 3174 3174 3175 3175 3175 3174 3174 3174 3174 3174 3173 3173 3172 3172 3171 3170 3169 3167 3166 3166 3166 3165 3165 3164 3164 3165 3166 3166 3166 3166 3166 3166 3165 3166 3166 3166 3166
3139 3141 3142 3142 3143 3143 3145 3146 3146 3146 3147 3149 3150 3151 3152 3153 3154 3155 3156 3157 3158 3159 3160 3161 3162 3162 3163 3164 3164 3164 3164 3165 3165 3166 3166 3167 3168 3169 3169 3170 3171 3171 3172 3172 3173 3174 3174 3174 3175 3175 3176 3176 3176 3176 3176 3176 3175 3175 3175 3174 3174 3174 3173 3172 3171 3170 3168 3168 3168 3167 3167 3166 3166 3166 3167 3168 3167 3167 3168 3167 3167 3167 3167 3167 3167
3138 3140 3141 3141 3142 3143 3144 3145 3145 3146 3147 3148 3149 3150 3151 3152 3153 3154 3155 3156 3157 3158 3159 3160 3161 3162 3162 3163 3164 3164 3164 3164 3165 3166 3167 3167 3168 3169 3169 3170 3171 3171 3172 3173 3173 3174 3175 3175 3176 3176 3177 3177 3177 3177 3177 3177 3177 3177 3177 3176 3176 3175 3175 3174 3173 3172 3170 3170 3170 3170 3169 3169 3168 3168 3168 3169 3169 3168 3168 3168 3168 3168 3168 3168 3168
3138 3140 3141 3141 3141 3142 3143 3144 3144 3146 3147 3148 3149 3150 3151 3152 3153 3154 3155 3156 3157 3158 3159 3159 3160 3161 3162 3163 3163 3164 3164 3165 3165 3166 3167 3167 3168 3169 3169 3170 3171 3171 3172 3173 3174 3175 3175 3176 3176 3177 3177 3178 3178 3178 3179 3179 3179 3178 3178 3178 3177 3177 3177 3176 3175 3174 3173 3172 3172 3172 3172 3172 3171 3170 3170 3170 3170 3170 3169 3169 3169 3169 3169 3169 3169
3139 3139 3140 3140 3140 3141 3142 3143 3144 3145 3146 3147 3148 3149 3150 3151 3152 3153 3154 3155 3156 3157 3158 3159 3160 3160 3161 3162 3163 3163 3164 3164 3165 3166 3167 3167 3168 3168 3169 3170 3170 3171 3172 3173 3174 3175 3176 3176 3177 3178 3178 3178 3179 3179 3180 3180 3180 3180 3180 3179 3179 3179 3178 3178 3177 3176 3175 3174 3174 3174 3173 3174 3173 3172 3172 3172 3172 3171 3171 3171 3170 3170 3170 3170 3170
3138 3139 3139 3140 3140 3140 3141 3142 3143 3144 3145 3146 3147 3149 3150 3151 3152 3153 3154 3155 3156 3157 3158 3159 3160 3160 3161 3161 3162 3163 3164 3164 3165 3165 3167 3167 3168 3168 3169 3170 3170 3171 3172 3173 3174 3175 3176 3177 3177 3178 3178 3179 3180 3180 3180 3181 3181 3181 3181 3181 3180 3180 3180 3180 3179 3178 3177 3176 3176 3176 3175 3175 3175 3175 3174 3174 3174 3173 3173 3172 3172 3172 3171 3171 3171
3137 3138 3138 3139 3139 3140 3140 3141 3142 3143 3144 3146 3147 3149 3150 3151 3152 3153 3154 3155 3156 3157 3158 3159 3159 3160 3160 3161 3162 3162 3163 3164 3164 3165 3166 3167 3167 3168 3168 3169 3170 3170 3172 3173 3174 3175 3176 3177 3178 3178 3179 3180 3180 3181 3181 3181 3182 3182 3182 3182 3182 3182 3181 3181 3181 3180 3179 3179 3178 3178 3177 3176 3177 3177 3176 3176 3175 3175 3175 3174 3174 3173 3173 3173 3173
3136 3137 3137 3138 3138 3139 3140 3140 3141 3142 3144 3145 3147 3148 3149 3150 3152 3153 3154 3155 3156 3157 3158 3159 3159 3160 3160 3161 3161 3162 3162 3163 3164 3165 3166 3167 3167 3168 3168 3168 3169 3170 3172 3173 3174 3175 3176 3177 3178 3179 3179 3180 3181 3182 3182 3182 3183 3183 3183 3183 3183 3183 3183 3183 3183 3182 3181 3181 3181 3180 3179 3178 3178 3178 3178 3178 3178 3177 3177 3176 3176 3175 3175 3174 3174
3135 3136 3136 3137 3137 3138 3139 3139 3140 3142 3144 3145 3147 3148 3149 3150 3152 3153 3154 3155 3156 3157 3158 3158 3158 3159 3160 3160 3160 3161 3161 3162 3163 3164 3166 3167 3167 3168 3168 3168 3169 3171 3172 3173 3174 3175 3176 3177 3178 3179 3180 3181 3182 3183 3183 3183 3183 3184 3184 3184 3184 3184 3184 3184 3184 3184 3183 3183 3183 3182 3181 3180 3180 3180 3179 3179 3179 3179 3179 3179 3178 3178 3177 3177 3176
3134 3135 3135 3136 3136 3137 3138 3139 3140 3142 3144 3145 3147 3148 3149 3150 3152 3153 3154 3155 3156 3156 3157 3157 3157 3158 3159 3159 3159 3160 3160 3161 3162 3163 3165 3166 3167 3168 3168 3168 3169 3171 3172 3173 3174 3175 3176 3177 3178 3179 3180 3181 3182 3183 3183 3184 3184 3184 3185 3185 3185 3185 3186 3186 3186 3186 3185 3185 3185 3184 3183 3182 3181 3181 3180 3181 3181 3181 3181 3181 3180 3180 3180 3179 3178
3134 3134 3134 3134 3135 3136 3137 3139 3141 3143 3144 3145 3147 3148 3149 3150 3151 3152 3153 3154 3155 3155 3156 3156 3156 3157 3157 3158 3158 3159 3159 3160 3161 3162 3164 3165 3166 3167 3168 3169 3170 3171 3172 3173 3174 3175 3176 3177 3178 3179 3180 3181 3182 3183 3184 3184 3185 3185 3185 3186 3186 3186 3186 3187 3187 3187 3187 3187 3186 3186 3185 3184 3183 3182 3182 3182 3182 3182 3183 3183 3182 3182 3182 3181 3180
3132 3133 3133 3134 3134 3135 3137 3139 3141 3143 3145 3146 3147 3148 3149 3150 3151 3152 3153 3153 3154 3154 3154 3154 3155 3156 3156 3157 3157 3158 3158 3159 3160 3161 3163 3164 3166 3167 3168 3169 3170 3171 3172 3173 3174 3175 3176 3177 3178 3179 3180 3181 3182 3184 3184 3185 3185 3185 3186 3186 3187 3187 3187 3188 3188 3188 3189 3188 3188 3188 3187 3186 3185 3184 3183 3183 3184 3184 3184 3184 3184 3184 3183 3183 3183
3131 3132 3132 3133 3134 3136 3138 3140 3142 3144 3145 3146 3147 3148 3149 3149 3150 3151 3152 3153 3153 3153 3153 3153 3154 3155 3155 3156 3156 3157 3158 3158 3160 3161 3162 3163 3164 3165 3167 3168 3169 3171 3172 3172 3173 3174 3175 3177 3178 3179 3179 3181 3182 3183 3185 3185 3185 3186 3186 3187 3187 3188 3188 3188 3189 3189 3190 3190 3190 3190 3189 3188 3187 3186 3185 3185 3186 3186 3186 3186 3186 3185 3185 3185 3185
3131 3132 3132 3133 3134 3136 3138 3141 3142 3144 3145 3146 3147 3148 3148 3149 3150 3150 3151 3151 3152 3152 3152 3152 3153 3154 3154 3155 3155 3156 3157 3158 3159 3160 3161 3162 3163 3165 3166 3168 3169 3170 3171 3172 3173 3174 3175 3176 3177 3178 3179 3180 3181 3183 3184 3185 3186 3186 3186 3187 3188 3188 3189 3189 3189 3190 3190 3190 3191 3191 3191 3190 3189 3188 3187 3187 3188 3187 3187 3187 3187 3187 3187 3187 3187
3130 3131 3132 3134 3135 3137 3139 3141 3143 3144 3145 3146 3147 3147 3148 3148 3149 3149 3150 3150 3151 3151 3152 3152 3153 3153 3153 3154 3155 3156 3157 3158 3158 3159 3160 3161 3162 3164 3166 3167 3169 3170 3171 3171 3172 3173 3174 3175 3176 3178 3179 3180 3181 3182 3184 3185 3186 3186 3186 3187 3188 3188 3189 3189 3190 3190 3191 3191 3192 3192 3192 3192 3191 3190 3189 3189 3189 3189 3189 3189 3189 3189 3188 3188 3188
3129 3131 3133 3134 3136 3138 3140 3142 3143 3144 3145 3145 3146 3146 3147 3147 3148 3149 3149 3150 3150 3151 3151 3151 3152 3152 3153 3154 3155 3155 3156 3157 3157 3158 3159 3160 3161 3163 3165 3167 3168 3169 3170 3171 3172 3173 3173 3174 3176 3177 3178 3179 3180 3181 3183 3184 3186 3186 3187 3187 3188 3189 3189 3190 3190 3190 3191 3191 3192 3193 3193 3193 3192 3191 3191 3191 3191 3191 3191 3190 3190 3190 3190 3190 3190
3129 3132 3133 3135 3137 3139 3141 3142 3143 3143 3144 3145 3145 3146 3146 3147 3147 3148 3149 3149 3150 3150 3151 3151 3151 3152 3153 3153 3154 3155 3155 3156 3157 3157 3158 3159 3160 3162 3164 3166 3167 3168 3169 3170 3171 3172 3173 3174 3175 3176 3178 3179 3180 3181 3182 3184 3185 3186 3187 3187 3188 3189 3189 3190 3190 3191 3191 3191 3192 3193 3193 3193 3193 3193 3192 3192 3192 3193 3192 3192 3192 3191 3191 3191 3191
3130 3132 3134 3136 3138 3140 3141 3142 3142 3143 3143 3144 3145 3145 3146 3146 3147 3147 3148 3149 3149 3149 3150 3150 3151 3152 3152 3153 3153 3154 3154 3155 3156 3156 3157 3158 3159 3161 3163 3165 3166 3167 3168 3169 3171 3171 3172 3173 3174 3176 3177 3178 3179 3181 3182 3183 3185 3186 3187 3187 3188 3189 3189 3190 3190 3191 3191 3192 3192 3193 3193 3194 3194 3193 3193 3193 3193 3194 3194 3193 3193 3193 3192 3192 3192
3130 3132 3135 3137 3138 3140 3141 3141 3142 3142 3143 3144 3145 3145 3145 3145 3146 3147 3147 3148 3148 3149 3149 3150 3150 3151 3152 3152 3152 3153 3154 3154 3155 3156 3157 3157 3159 3160 3162 3163 3164 3166 3167 3168 3170 3171 3172 3173 3174 3175 3176 3178 3179 3180 3181 3182 3184 3185 3186 3187 3188 3188 3189 3189 3190 3191 3191 3191 3192 3192 3193 3193 3194 3194 3194 3194 3194 3194 3194 3194 3194 3194 3193 3193 3193
3131 3133 3135 3137 3138 3139 3140 3140 3141 3142 3143 3143 3144 3144 3144 3144 3145 3146 3147 3147 3148 3148 3149 3149 3150 3150 3151 3151 3152 3152 3153 3154 3154 3155 3156 3157 3158 3159 3160 3162 3163 3165 3166 3167 3169 3170 3171 3172 3173 3174 3175 3177 3178 3179 3180 3181 3183 3184 3185 3186 3187 3188 3188 3189 3190 3190 3191 3191 3192 3192 3193 3193 3193 3193 3193 3194 3194 3194 3194 3194 3194 3194 3194 3194 3193
3131 3133 3135 3136 3138 3139 3139 3140 3140 3141 3142 3142 3142 3143 3143 3144 3144 3145 3146 3146 3147 3147 3148 3148 3149 3149 3150 3151 3151 3152 3152 3153 3153 3154 3155 3156 3157 3158 3159 3161 3163 3164 3166 3167 3168 3169 3170 3171 3172 3173 3175 3176 3177 3179 3179 3180 3182 3183 3184 3185 3186 3187 3188 3188 3189 3189 3190 3191 3191 3192 3192 3193 3193 3193 3193 3193 3193 3194 3194 3194 3194 3194 3194 3194 3194
3131 3133 3134 3136 3137 3138 3139 3139 3140 3140 3141 3141 3141 3142 3142 3143 3143 3144 3145 3145 3146 3146 3146 3147 3148 3148 3149 3150 3151 3151 3152 3152 3153 3154 3155 3156 3156 3158 3159 3160 3162 3163 3165 3166 3168 3168 3169 3171 3172 3173 3174 3175 3177 3178 3178 3179 3181 3182 3183 3184 3185 3186 3187 3187 3188 3188 3189 3190 3190 3190 3191 3191 3192 3192 3192 3192 3192 3193 3193 3194 3194 3194 3194 3194 3194
3130 3133 3134 3135 3136 3137 3138 3139 3139 3140 3141 3141 3141 3141 3141 3142 3143 3143 3143 3144 3144 3145 3145 3146 3147 3147 3148 3149 3150 3151 3151 3152 3153 3154 3154 3155 3156 3158 3159 3159 3161 3162 3163 3165 3167 3168 3169 3170 3171 3173 3174 3175 3176 3177 3178 3178 3179 3181 3182 3183 3184 3185 3185 3185 3186 3187 3187 3188 3189 3189 3189 3190 3190 3191 3191 3191 3191 3192 3192 3193 3193 3193 3193 3193 3193
3130 3132 3134 3135 3136 3137 3138 3139 3140 3140 3140 3140 3140 3140 3141 3141 3142 3142 3142 3142 3143 3143 3144 3145 3146 3146 3147 3148 3149 3150 3151 3152 3153 3154 3154 3155 3157 3158 3159 3160 3161 3161 3162 3164 3166 3167 3169 3169 3171 3172 3173 3174 3175 3176 3177 3177 3178 3179 3180 3182 3182 3183 3183 3184 3184 3185 3186 3186 3187 3187 3188 3188 3189 3189 3189 3189 3190 3191 3191 3191 3192 3192 3192 3192 3193
3129 3131 3133 3135 3137 3137 3138 3139 3139 3140 3140 3140 3139 3139 3140 3140 3141 3141 3141 3141 3142 3142 3143 3144 3144 3145 3146 3147 3149 3150 3151 3151 3152 3153 3154 3155 3156 3158 3159 3160 3161 3161 3162 3163 3165 3167 3168 3169 3170 3171 3173 3174 3175 3176 3176 3176 3177 3178 3179 3180 3181 3181 3181 3182 3182 3183 3184 3184 3185 3186 3186 3187 3187 3187 3187 3188 3188 3189 3189 3190 3190 3191 3191 3191 3191
3129 3131 3133 3135 3137 3137 3138 3139 3139 3139 3139 3139 3139 3139 3139 3140 3140 3140 3140 3140 3141 3141 3142 3142 3143 3144 3145 3146 3148 3149 3150 3151 3152 3153 3154 3155 3156 3157 3158 3159 3160 3162 3163 3164 3166 3166 3167 3169 3170 3171 3172 3173 3174 3175 3175 3176 3176 3177 3177 3178 3179 3179 3180 3180 3181 3181 3182 3182 3183 3184 3185 3185 3185 3185 3185 3186 3186 3187 3187 3188 3188 3189 3189 3190 3190
3131 3132 3133 3135 3136 3137 3138 3138 3138 3138 3138 3138 3138 3138 3139 3139 3139 3139 3139 3140 3140 3141 3141 3141 3142 3143 3144 3146 3147 3148 3150 3151 3152 3153 3154 3155 3156 3157 3158 3158 3160 3162 3163 3164 3165 3165 3167 3170 3171 3172 3172 3173 3174 3174 3174 3175 3175 3176 3177 3177 3178 3178 3179 3179 3180 3180 3180 3181 3181 3182 3183 3183 3183 3183 3183 3184 3185 3185 3185 3186 3186 3187 3187 3188 3189
3132 3133 3134 3135 3136 3137 3137 3138 3138 3137 3136 3137 3137 3137 3137 3138 3139 3139 3139 3139 3139 3140 3140 3140 3141 3142 3144 3145 3146 3148 3149 3150 3151 3153 3154 3155 3156 3157 3158 3159 3160 3161 3162 3164 3165 3165 3168 3171 3171 3172 3172 3172 3173 3173 3173 3174 3175 3175 3176 3176 3177 3177 3178 3178 3178 3179 3179 3179 3180 3180 3181 3181 3181 3181 3182 3182 3183 3183 3183 3184 3184 3185 3185 3186 3187
3132 3133 3134 3135 3135 3136 3137 3137 3137 3136 3136 3136 3136 3136 3136 3137 3138 3138 3138 3138 3139 3139 3139 3139 3140 3141 3143 3144 3146 3147 3149 3150 3151 3153 3154 3155 3155 3156 3157 3158 3160 3161 3162 3163 3164 3166 3169 3171 3172 3172 3172 3172 3171 3172 3172 3173 3174 3174 3175 3175 3176 3176 3177 3177 3177 3177 3178 3178 3178 3179 3180 3180 3180 3180 3180 3180 3181 3181 3182 3182 3182 3183 3183 3184 3185
3130 3132 3133 3135 3136 3136 3136 3136 3136 3135 3135 3135 3136 3136 3136 3137 3137 3137 3137 3138 3138 3138 3138 3139 3139 3141 3142 3143 3145 3147 3148 3150 3151 3153 3154 3155 3156 3156 3157 3159 3160 3161 3162 3163 3164 3166 3169 3171 3171 3171 3171 3171 3170 3170 3171 3172 3173 3173 3174 3174 3175 3175 3175 3176 3176 3176 3176 3177 3177 3178 3178 3179 3179 3178 3178 3179 3179 3180 3180 3181 3181 3181 3181 3182 3183
3127 3131 3134 3135 3135 3135 3135 3135 3135 3134 3134 3135 3135 3136 3136 3136 3136 3137 3137 3137 3137 3137 3138 3138 3139 3140 3142 3143 3144 3146 3148 3150 3151 3153 3154 3155 3156 3157 3158 3159 3160 3161 3162 3163 3165 3166 3168 3170 3170 3170 3170 3169 3169 3170 3170 3171 3172 3172 3173 3173 3173 3173 3174 3174 3175 3175 3176 3176 3176 3177 3177 3177 3177 3177 3177 3178 3178 3179 3179 3180 3180 3180 3180 3181 3181
3125 3128 3132 3132 3133 3133 3133 3133 3133 3133 3133 3134 3135 3135 3136 3136 3136 3136 3136 3136 3136 3137 3138 3139 3140 3140 3141 3143 3144 3146 3147 3149 3151 3153 3154 3155 3156 3157 3158 3159 3160 3161 3162 3163 3164 3166 3167 3168 3168 3168 3168 3168 3168 3169 3169 3170 3171 3171 3172 3172 3172 3172 3173 3173 3174 3174 3175 3175 3175 3175 3175 3176 3176 3176 3176 3177 3178 3178 3178 3179 3179 3179 3179 3180 3180
3125 3126 3127 3129 3130 3131 3131 3131 3132 3132 3132 3132 3133 3134 3135 3135 3135 3135 3136 3136 3136 3137 3137 3139 3140 3141 3142 3143 3144 3146 3147 3149 3151 3152 3154 3155 3156 3157 3158 3158 3159 3160 3161 3162 3164 3165 3166 3167 3167 3166 3166 3167 3168 3168 3169 3169 3170 3170 3171 3171 3171 3172 3172 3172 3173 3173 3173 3173 3172 3173 3175 3176 3176 3176 3176 3176 3177 3177 3178 3178 3178 3178 3179 3179 3179
3126 3126 3127 3128 3129 3130 3130 3130 3131 3131 3131 3132 3132 3134 3134 3135 3135 3135 3135 3135 3135 3136 3137 3139 3140 3141 3142 3143 3144 3146 3148 3149 3151 3152 3154 3155 3156 3157 3158 3158 3159 3159 3160 3161 3163 3164 3165 3165 3165 3165 3165 3166 3167 3167 3168 3168 3169 3170 3170 3170 3171 3171 3171 3171 3172 3172 3172 3172 3172 3174 3176 3175 3175 3175 3175 3175 3175 3176 3177 3177 3177 3177 3178 3178 3179
3126 3127 3128 3128 3128 3128 3129 3129 3130 3130 3130 3131 3132 3133 3134 3134 3134 3134 3134 3135 3135 3136 3137 3139 3140 3141 3142 3143 3145 3146 3148 3149 3150 3152 3153 3154 3155 3156 3157 3158 3158 3159 3159 3161 3162 3163 3163 3163 3164 3164 3164 3165 3166 3166 3167 3167 3168 3169 3169 3169 3170 3170 3170 3171 3171 3171 3172 3172 3173 3175 3174 3172 3173 3174 3174 3174 3174 3175 3176 3176 3176 3176 3177 3177 3178
3125 3126 3127 3127 3127 3127 3127 3128 3128 3129 3129 3130 3131 3132 3133 3134 3134 3134 3134 3134 3135 3136 3137 3139 3140 3141 3142 3144 3145 3147 3148 3149 3150 3151 3152 3153 3155 3155 3156 3157 3157 3158 3158 3160 3161 3162 3162 3162 3162 3163 3164 3164 3165 3165 3166 3167 3168 3168 3168 3169 3169 3169 3169 3170 3170 3171 3172 3173 3174 3173 3171 3171 3172 3172 3173 3173 3173 3174 3175 3175 3175 3175 3176 3176 3177
3124 3124 3125 3126 3126 3126 3126 3126 3127 3127 3128 3129 3130 3132 3133 3133 3133 3133 3134 3134 3135 3136 3137 3139 3140 3141 3142 3144 3145 3146 3148 3149 3149 3151 3152 3153 3154 3155 3155 3156 3156 3157 3158 3159 3160 3161 3161 3161 3162 3162 3163 3163 3164 3165 3165 3166 3167 3168 3168 3168 3168 3168 3169 3169 3170 3170 3171 3172 3172 3171 3171 3171 3171 3171 3172 3172 3172 3173 3174 3174 3174 3174 3175 3175 3176
3123 3123 3124 3124 3125 3124 3124 3125 3125 3126 3127 3128 3130 3131 3132 3133 3133 3133 3133 3134 3135 3136 3137 3138 3139 3141 3142 3144 3145 3146 3147 3148 3149 3150 3151 3152 3153 3153 3154 3155 3155 3156 3157 3158 3159 3160 3160 3160 3161 3161 3162 3163 3163 3164 3165 3166 3166 3167 3167 3167 3168 3168 3168 3169 3169 3170 3170 3171 3170 3170 3171 3171 3169 3170 3171 3171 3172 3172 3172 3173 3173 3174 3174 3174 3175
3122 3122 3122 3123 3123 3123 3123 3124 3124 3125 3127 3128 3130 3131 3132 3132 3133 3133 3133 3134 3135 3136 3137 3138 3139 3141 3142 3143 3144 3145 3146 3147 3148 3149 3149 3150 3151 3152 3153 3154 3155 3156 3156 3157 3158 3159 3159 3160 3160 3160 3161 3162 3163 3163 3164 3165 3166 3166 3166 3167 3167 3167 3167 3168 3169 3169 3170 3169 3169 3169 3169 3169 3169 3169 3170 3171 3171 3170 3171 3171 3172 3173 3173 3174 3174
3121 3121 3121 3121 3122 3123 3123 3123 3124 3125 3127 3128 3129 3130 3131 3132 3132 3133 3133 3134 3135 3136 3137 3138 3140 3141 3142 3143 3144 3145 3145 3146 3146 3147 3148 3149 3150 3151 3152 3153 3154 3155 3155 3156 3157 3158 3158 3159 3159 3160 3161 3161 3162 3163 3163 3164 3165 3165 3166 3166 3166 3166 3167 3167 3168 3168 3169 3169 3168 3169 3168 3168 3168 3168 3169 3171 3171 3170 3171 3171 3171 3172 3173 3173 3174
3119 3119 3120 3120 3121 3122 3122 3123 3123 3125 3127 3128 3129 3130 3131 3132 3132 3132 3133 3134 3135 3136 3137 3138 3140 3141 3142 3143 3143 3144 3145 3145 3146 3146 3147 3148 3149 3150 3151 3152 3153 3154 3154 3155 3156 3157 3158 3158 3158 3159 3160 3161 3161 3162 3163 3163 3164 3164 3165 3166 3166 3166 3166 3167 3167 3168 3168 3168 3168 3168 3168 3168 3168 3168 3169 3171 3171 3170 3171 3171 3171 3172 3172 3172 3173
3118 3118 3118 3119 3120 3121 3121 3122 3122 3124 3126 3127 3128 3129 3130 3131 3131 3132 3132 3134 3135 3136 3137 3138 3139 3140 3141 3142 3143 3144 3144 3145 3145 3145 3146 3147 3148 3149 3150 3151 3152 3153 3153 3154 3155 3156 3157 3157 3157 3158 3159 3160 3161 3162 3162 3162 3163 3164 3165 3165 3165 3166 3166 3166 3167 3167 3168 3168 3168 3168 3168 3168 3169 3169 3169 3171 3171 3170 3171 3171 3171 3171 3172 3172 3173
3116 3116 3117 3118 3120 3120 3120 3120 3121 3123 3125 3126 3127 3128 3129 3130 3131 3132 3132 3133 3135 3136 3137 3138 3139 3140 3141 3142 3142 3143 3144 3144 3144 3144 3145 3146 3147 3148 3149 3150 3151 3152 3152 3153 3154 3155 3155 3156 3156 3158 3159 3159 3160 3161 3161 3162 3162 3163 3164 3164 3165 3165 3165 3166 3166 3167 3167 3168 3168 3168 3168 3168 3169 3169 3169 3170 3170 3170 3170 3170 3171 3171 3172 3172 3173
3114 3115 3116 3117 3118 3119 3119 3119 3120 3122 3123 3125 3126 3127 3128 3129 3131 3132 3133 3134 3135 3136 3137 3138 3139 3140 3141 3141 3142 3142 3143 3143 3144 3144 3145 3145 3146 3147 3148 3149 3150 3151 3151 3151 3152 3153 3154 3155 3155 3156 3157 3158 3159 3160 3161 3161 3162 3162 3163 3164 3164 3164 3164 3165 3165 3166 3167 3167 3167 3167 3168 3168 3168 3168 3169 3169 3169 3170 3170 3170 3170 3171 3172 3172 3173
3113 3114 3115 3116 3117 3117 3117 3118 3119 3121 3122 3123 3125 3126 3128 3128 3130 3131 3132 3134 3136 3137 3138 3138 3139 3140 3140 3141 3141 3142 3142 3143 3144 3144 3145 3145 3146 3147 3148 3148 3149 3149 3150 3150 3151 3152 3153 3154 3154 3155 3156 3157 3158 3159 3160 3160 3161 3161 3162 3163 3164 3164 3164 3164 3165 3165 3166 3166 3167 3167 3167 3167 3167 3167 3168 3168 3169 3169 3170 3170 3170 3171 3172 3173 3172
3111 3112 3113 3114 3115 3115 3116 3117 3119 3120 3120 3121 3123 3125 3126 3126 3128 3130 3132 3133 3135 3136 3137 3138 3139 3139 3140 3140 3141 3142 3142 3143 3144 3144 3145 3145 3146 3147 3147 3148 3148 3148 3149 3149 3150 3151 3152 3153 3153 3154 3155 3156 3157 3158 3159 3160 3160 3161 3161 3162 3163 3163 3163 3164 3164 3165 3165 3166 3166 3166 3166 3167 3167 3167 3167 3167 3168 3169 3170 3170 3170 3171 3172 3172 3172
3110 3111 3112 3113 3114 3115 3116 3117 3117 3118 3118 3120 3122 3124 3124 3125 3127 3129 3130 3132 3134 3135 3137 3138 3138 3139 3140 3140 3141 3142 3142 3143 3144 3144 3145 3145 3146 3146 3147 3147 3147 3148 3148 3148 3149 3149 3150 3151 3152 3153 3154 3155 3155 3156 3157 3158 3159 3160 3160 3161 3162 3162 3163 3163 3163 3164 3165 3165 3166 3166 3166 3166 3167 3167 3167 3167 3168 3168 3169 3170 3170 3171 3171 3172 3172
3109 3109 3111 3112 3113 3114 3115 3115 3116 3116 3117 3119 3121 3122 3123 3125 3127 3128 3129 3131 3133 3134 3136 3137 3138 3139 3139 3140 3141 3142 3142 3143 3144 3144 3145 3145 3146 3146 3147 3147 3147 3147 3147 3147 3147 3148 3149 3150 3151 3152 3153 3154 3154 3155 3156 3157 3158 3159 3159 3160 3161 3162 3162 3162 3163 3163 3164 3164 3165 3165 3166 3166 3166 3167 3167 3167 3168 3169 3169 3170 3170 3170 3171 3171 3171
3107 3108 3110 3112 3113 3113 3114 3114 3114 3114 3116 3118 3120 3121 3122 3124 3125 3126 3127 3129 3132 3133 3135 3136 3137 3138 3139 3140 3141 3142 3142 3143 3144 3144 3145 3145 3146 3146 3146 3147 3147 3147 3147 3147 3147 3147 3148 3149 3150 3151 3152 3152 3153 3153 3154 3155 3157 3158 3158 3159 3160 3160 3161 3161 3162 3162 3163 3163 3164 3165 3165 3165 3166 3167 3167 3168 3168 3169 3169 3169 3170 3170 3170 3171 3171
3106 3108 3110 3112 3112 3112 3112 3112 3112 3112 3113 3115 3117 3119 3121 3122 3123 3124 3126 3129 3131 3133 3134 3135 3137 3138 3139 3140 3141 3142 3143 3143 3144 3144 3145 3145 3146 3146 3146 3147 3147 3147 3147 3146 3147 3147 3147 3148 3149 3150 3151 3152 3152 3152 3153 3154 3156 3157 3157 3158 3159 3160 3160 3160 3161 3162 3162 3163 3164 3164 3165 3165 3166 3167 3167 3167 3168 3168 3169 3169 3169 3169 3170 3170 3170